Weather History for Scottsbluff, NE

Change the Weather History Date:

Wednesday, March 19, 2014

  Actual Average Record
Temperature  
Mean Temperature 36 °F 39 °F  
Max Temperature 52 °F 54 °F 82 °F (1907)
Min Temperature 20 °F 25 °F -6 °F (1943)
Degree Days  
Heating Degree Days 29 26  
Month to date heating degree days 529 539  
Since 1 July heating degree days 5562 5451  
Cooling Degree Days 0 0  
Month to date cooling degree days 0 0  
Year to date cooling degree days 0 0  
Moisture  
Dew Point 20 °F    
Average Humidity 59    
Maximum Humidity 92    
Minimum Humidity 26    
Precipitation  
Precipitation 0.00 in 0.03 in 0.61 in (2006)
Month to date precipitation 0.38 0.54  
Year to date precipitation 1.98 1.55  
Snow  
Snow 0.00 in 0.30 in 7.60 in (2006)
Month to date snowfall 4.2 4.8  
Since 1 July snowfall 55.5 33.2  
Snow Depth 0.00 in    
Sea Level Pressure  
Sea Level Pressure 30.09 in    
Wind  
Wind Speed 9 mph (West)    
Max Wind Speed 22 mph    
Max Gust Speed 28 mph    
Visibility 10 miles    
Events      
T = Trace of Precipitation, MM = Missing Value Source: NWS Daily Summary

Daily Weather History Graph

Daily Weather History Graph

Search for Another Location

Airport:

Trip Planner

Search our weather history database for the weather conditions in past years. The results will help you decide how hot, cold, wet, or windy it might be!

Date:

Astronomy

Mar. 19, 2014 Rise Set
Actual Time 6:59 AM MDT 7:05 PM MDT
Civil Twilight 6:31 AM MDT 7:33 PM MDT
Nautical Twilight 5:59 AM MDT 8:05 PM MDT
Astronomical Twilight 5:25 AM MDT 8:39 PM MDT
Moon 10:29 PM MDT (3/19) 8:23 AM MDT (3/19)
Length of Visible Light 13h 01m
Length of Day
12h 06m
Waning Gibbous, 91% of the Moon is Illuminated
Mar 19
Waning Gibbous
Mar 23
Last Quarter
Mar 30
New
Apr 7
First Quarter
Apr 15
Full

Hourly Weather History & Observations

Time (MDT) Temp. Windchill Dew Point Humidity Pressure Visibility Wind Dir Wind Speed Gust Speed Precip Events Conditions
12:53 AM 24.1 °F 18.2 °F 21.0 °F 88% 30.14 in 10.0 mi WNW 4.6 mph - N/A   Clear
1:53 AM 24.1 °F 19.7 °F 19.0 °F 81% 30.15 in 10.0 mi WNW 3.5 mph - N/A   Clear
2:53 AM 21.9 °F 15.7 °F 18.0 °F 85% 30.15 in 10.0 mi NW 4.6 mph - N/A   Clear
3:53 AM 23.0 °F 15.8 °F 19.9 °F 88% 30.13 in 10.0 mi NW 5.8 mph - N/A   Clear
4:53 AM 21.9 °F 13.4 °F 19.0 °F 89% 30.14 in 10.0 mi NW 6.9 mph - N/A   Clear
5:53 AM 21.0 °F 13.4 °F 18.0 °F 88% 30.15 in 10.0 mi NW 5.8 mph - N/A   Clear
6:53 AM 21.0 °F - 18.0 °F 88% 30.17 in 10.0 mi Calm Calm - N/A   Partly Cloudy
7:53 AM 24.1 °F - 19.9 °F 84% 30.17 in 10.0 mi Calm Calm - N/A   Clear
8:53 AM 28.9 °F 22.8 °F 21.9 °F 75% 30.17 in 10.0 mi WNW 5.8 mph - N/A   Clear
9:53 AM 36.0 °F 27.5 °F 25.0 °F 64% 30.17 in 10.0 mi West 12.7 mph - N/A   Clear
10:53 AM 39.9 °F 32.5 °F 24.1 °F 53% 30.16 in 10.0 mi WNW 12.7 mph - N/A   Clear
11:53 AM 44.1 °F 37.7 °F 21.9 °F 42% 30.13 in 10.0 mi West 12.7 mph 20.7 mph N/A   Partly Cloudy
12:53 PM 46.9 °F - 19.0 °F 33% 30.12 in 10.0 mi West 15.0 mph 23.0 mph N/A   Partly Cloudy
1:53 PM 48.9 °F - 19.0 °F 31% 30.09 in 10.0 mi West 17.3 mph 25.3 mph N/A   Clear
2:53 PM 50.0 °F - 17.1 °F 27% 30.07 in 10.0 mi West 15.0 mph - N/A   Clear
3:53 PM 51.1 °F - 18.0 °F 27% 30.05 in 10.0 mi West 23.0 mph 27.6 mph N/A   Clear
4:53 PM 51.1 °F - 18.0 °F 27% 30.04 in 10.0 mi West 16.1 mph - N/A   Clear
5:53 PM 48.9 °F - 18.0 °F 29% 30.05 in 10.0 mi WNW 11.5 mph 25.3 mph N/A   Clear
6:53 PM 46.9 °F - 18.0 °F 32% 30.05 in 10.0 mi WNW 16.1 mph - N/A   Clear
7:53 PM 42.1 °F 38.4 °F 21.0 °F 43% 30.03 in 10.0 mi West 5.8 mph - N/A   Clear
8:53 PM 39.9 °F 34.5 °F 21.9 °F 49% 30.03 in 10.0 mi SW 8.1 mph - N/A   Clear
9:53 PM 37.0 °F 31.0 °F 21.9 °F 54% 30.01 in 10.0 mi SSW 8.1 mph - N/A   Clear
10:53 PM 33.1 °F 30.0 °F 21.0 °F 61% 30.00 in 10.0 mi SE 3.5 mph - N/A   Clear
11:53 PM 37.9 °F 32.7 °F 21.0 °F 51% 29.98 in 10.0 mi SSW 6.9 mph - N/A   Clear